When you browse on this site, cookies collect data to enhance your experience and personalize the content and advertising you see.
Visit our Privacy Policy to learn more. By continuing to use the site, you agree to this use of cookies and data.
  • In Portugal
  • List of Countries
  • For 7 days
  • Water Temperature
  • Weather Map
  • Weather Widgets
  • user-avatar
    Login

    Hourly Weather Innsbruck

    Today, 22 September, Sunday

    Time Temperature Precipitation Wind Pressure Humidity
    00:00 +3°C° 0 mm 3 mps 597 mmHg 81%
    01:00 +4°C° 0 mm 3 mps 597 mmHg 84%
    02:00 +3°C° 0 mm 3 mps 596 mmHg 82%
    03:00 +3°C° 0 mm 3 mps 596 mmHg 79%
    04:00 +3°C° 0 mm 3 mps 596 mmHg 77%
    05:00 +4°C° 0 mm 3 mps 596 mmHg 74%
    06:00 +5°C° 0 mm 2 mps 596 mmHg 72%
    07:00 +5°C° 0 mm 3 mps 597 mmHg 66%
    08:00 +8°C° 0 mm 3 mps 597 mmHg 63%
    09:00 +9°C° 0 mm 2 mps 598 mmHg 60%
    10:00 +12°C° 0 mm 2 mps 598 mmHg 57%
    11:00 +13°C° 0 mm 2 mps 598 mmHg 56%
    12:00 +14°C° 0 mm 2 mps 599 mmHg 55%
    13:00 +15°C° 0 mm 2 mps 599 mmHg 54%
    14:00 +14°C° 0.1 mm 2 mps 598 mmHg 59%
    15:00 +13°C° 0.1 mm 2 mps 598 mmHg 64%
    16:00 +12°C° 0.1 mm 2 mps 597 mmHg 70%
    17:00 +10°C° 0.2 mm 2 mps 597 mmHg 76%
    18:00 +8°C° 0.2 mm 2 mps 596 mmHg 83%
    19:00 +7°C° 0.2 mm 2 mps 596 mmHg 90%
    20:00 +7°C° 0.1 mm 2 mps 596 mmHg 90%
    21:00 +8°C° 0.1 mm 1 mps 595 mmHg 89%
    22:00 +7°C° 0.1 mm 1 mps 595 mmHg 89%
    23:00 +6°C° 0 mm 2 mps 595 mmHg 89%

    Tomorrow, 23 September, Monday

    Time Temperature Precipitation Wind Pressure Humidity
    00:00 +5°C° 0 mm 2 mps 595 mmHg 89%
    01:00 +5°C° 0 mm 2 mps 594 mmHg 90%
    02:00 +4°C° 0 mm 2 mps 594 mmHg 90%
    03:00 +5°C° 0 mm 1 mps 594 mmHg 91%
    04:00 +5°C° 0 mm 1 mps 594 mmHg 91%
    05:00 +5°C° 0.1 mm 1 mps 594 mmHg 92%
    06:00 +6°C° 0.1 mm 1 mps 595 mmHg 92%
    07:00 +7°C° 0.1 mm 1 mps 595 mmHg 93%
    08:00 +6°C° 1.3 mm 1 mps 595 mmHg 94%
    09:00 +5°C° 1.3 mm 2 mps 596 mmHg 96%
    10:00 +5°C° 1.3 mm 2 mps 596 mmHg 97%
    11:00 +4°C° 3.3 mm 2 mps 596 mmHg 97%
    12:00 +4°C° 3.3 mm 2 mps 595 mmHg 97%
    13:00 +3°C° 3.3 mm 2 mps 595 mmHg 97%
    14:00 +3°C° 2 mm 2 mps 595 mmHg 96%
    15:00 +4°C° 2 mm 1 mps 595 mmHg 96%
    16:00 +4°C° 2 mm 1 mps 595 mmHg 96%
    17:00 +4°C° 0.4 mm 1 mps 595 mmHg 96%
    18:00 +3°C° 0.4 mm 1 mps 595 mmHg 97%
    19:00 +3°C° 0.4 mm 1 mps 595 mmHg 97%
    20:00 +3°C° 0 mm 1 mps 595 mmHg 96%
    21:00 +3°C° 0 mm 1 mps 596 mmHg 96%
    22:00 +2°C° 0 mm 1 mps 596 mmHg 95%
    23:00 +2°C° 0 mm 1 mps 595 mmHg 94%

    Day after tomorrow, 24 September, Tuesday

    Time Temperature Precipitation Wind Pressure Humidity
    00:00 +1°C° 0 mm 1 mps 595 mmHg 92%
    01:00 +1°C° 0 mm 1 mps 595 mmHg 91%
    02:00 0°C° 0 mm 1 mps 594 mmHg 90%
    03:00 0°C° 0 mm 1 mps 594 mmHg 88%
    04:00 0°C° 0 mm 1 mps 594 mmHg 87%
    05:00 +1°C° 0 mm 1 mps 594 mmHg 86%
    06:00 +1°C° 0 mm 1 mps 594 mmHg 84%
    07:00 +2°C° 0 mm 1 mps 594 mmHg 83%
    08:00 +4°C° 0 mm 1 mps 595 mmHg 79%
    09:00 +6°C° 0 mm 1 mps 596 mmHg 75%
    10:00 +9°C° 0 mm 1 mps 596 mmHg 71%
    11:00 +10°C° 0 mm 1 mps 597 mmHg 65%
    12:00 +11°C° 0 mm 1 mps 597 mmHg 58%
    13:00 +13°C° 0 mm 1 mps 597 mmHg 52%
    14:00 +12°C° 0 mm 1 mps 597 mmHg 53%
    15:00 +12°C° 0 mm 1 mps 596 mmHg 54%
    16:00 +12°C° 0 mm 1 mps 596 mmHg 54%
    17:00 +9°C° 0 mm 1 mps 595 mmHg 63%
    18:00 +7°C° 0 mm 1 mps 594 mmHg 72%
    19:00 +5°C° 0 mm 1 mps 593 mmHg 80%
    20:00 +5°C° 0 mm 1 mps 593 mmHg 79%
    21:00 +5°C° 0 mm 1 mps 594 mmHg 78%
    22:00 +6°C° 0 mm 1 mps 594 mmHg 77%
    23:00 +5°C° 0.2 mm 1 mps 594 mmHg 80%

    25 September, Wednesday

    Time Temperature Precipitation Wind Pressure Humidity
    00:00 +5°C° 0.2 mm 1 mps 593 mmHg 82%
    01:00 +4°C° 0.2 mm 1 mps 593 mmHg 85%
    02:00 +3°C° 0.2 mm 0 mps 593 mmHg 87%
    03:00 +3°C° 0.2 mm 0 mps 593 mmHg 89%
    04:00 +3°C° 0.2 mm 0 mps 593 mmHg 92%
    05:00 +4°C° 0.3 mm 0 mps 593 mmHg 92%
    06:00 +4°C° 0.3 mm 0 mps 593 mmHg 93%
    07:00 +4°C° 0.3 mm 0 mps 593 mmHg 94%
    08:00 +5°C° 0.4 mm 1 mps 593 mmHg 92%
    09:00 +6°C° 0.4 mm 1 mps 593 mmHg 91%
    10:00 +6°C° 0.4 mm 1 mps 593 mmHg 89%
    11:00 +6°C° 1.2 mm 1 mps 593 mmHg 91%
    12:00 +5°C° 1.2 mm 1 mps 593 mmHg 92%
    13:00 +4°C° 1.2 mm 2 mps 593 mmHg 94%
    14:00 +4°C° 1.6 mm 1 mps 592 mmHg 95%
    15:00 +4°C° 1.6 mm 1 mps 592 mmHg 95%
    16:00 +3°C° 1.6 mm 1 mps 592 mmHg 96%
    17:00 +3°C° 0.4 mm 1 mps 592 mmHg 96%
    18:00 +3°C° 0.4 mm 1 mps 592 mmHg 97%
    19:00 +3°C° 0.4 mm 1 mps 593 mmHg 97%
    20:00 +3°C° 0.2 mm 1 mps 593 mmHg 97%
    21:00 +2°C° 0.2 mm 1 mps 593 mmHg 97%
    22:00 +2°C° 0.2 mm 1 mps 593 mmHg 97%
    23:00 +2°C° 0.1 mm 1 mps 593 mmHg 97%

    26 September, Thursday

    Time Temperature Precipitation Wind Pressure Humidity
    00:00 +2°C° 0.1 mm 1 mps 593 mmHg 97%
    01:00 +2°C° 0.1 mm 1 mps 593 mmHg 97%
    02:00 +2°C° 0 mm 1 mps 593 mmHg 95%
    03:00 +1°C° 0 mm 1 mps 593 mmHg 94%
    04:00 +1°C° 0 mm 1 mps 593 mmHg 93%
    05:00 +1°C° 0.1 mm 1 mps 594 mmHg 92%
    06:00 +2°C° 0.1 mm 1 mps 594 mmHg 91%
    07:00 +2°C° 0.1 mm 1 mps 594 mmHg 90%
    08:00 +3°C° 0.2 mm 1 mps 595 mmHg 90%
    09:00 +4°C° 0.2 mm 1 mps 596 mmHg 90%
    10:00 +5°C° 0.2 mm 1 mps 596 mmHg 90%
    11:00 +6°C° 0.1 mm 1 mps 596 mmHg 89%
    12:00 +6°C° 0.1 mm 1 mps 597 mmHg 89%
    13:00 +7°C° 0.1 mm 1 mps 597 mmHg 88%
    14:00 +7°C° 0.1 mm 1 mps 597 mmHg 89%
    15:00 +7°C° 0.1 mm 1 mps 597 mmHg 89%
    16:00 +7°C° 0.1 mm 1 mps 597 mmHg 89%
    17:00 +6°C° 0 mm 1 mps 597 mmHg 90%
    18:00 +5°C° 0 mm 1 mps 597 mmHg 91%
    19:00 +5°C° 0 mm 1 mps 597 mmHg 92%
    20:00 +4°C° 0 mm 1 mps 597 mmHg 91%
    21:00 +4°C° 0 mm 1 mps 597 mmHg 90%
    22:00 +4°C° 0 mm 1 mps 597 mmHg 89%
    23:00 +3°C° 0 mm 1 mps 597 mmHg 89%

    27 September, Friday

    Time Temperature Precipitation Wind Pressure Humidity
    00:00 +3°C° 0 mm 1 mps 597 mmHg 88%
    01:00 +3°C° 0 mm 1 mps 597 mmHg 88%
    02:00 +3°C° 0 mm 1 mps 597 mmHg 87%
    03:00 +3°C° 0 mm 1 mps 597 mmHg 86%
    04:00 +3°C° 0 mm 1 mps 597 mmHg 86%
    05:00 +4°C° 0 mm 1 mps 597 mmHg 84%
    06:00 +5°C° 0 mm 1 mps 597 mmHg 83%
    07:00 +5°C° 0 mm 1 mps 597 mmHg 82%
    08:00 +7°C° 0 mm 1 mps 598 mmHg 78%
    09:00 +9°C° 0 mm 1 mps 599 mmHg 73%
    10:00 +11°C° 0 mm 1 mps 600 mmHg 69%
    11:00 +12°C° 0 mm 1 mps 600 mmHg 65%
    12:00 +13°C° 0 mm 1 mps 601 mmHg 60%
    13:00 +14°C° 0 mm 1 mps 601 mmHg 56%
    14:00 +13°C° 0.1 mm 1 mps 600 mmHg 60%
    15:00 +13°C° 0.1 mm 1 mps 600 mmHg 64%
    16:00 +12°C° 0.1 mm 1 mps 599 mmHg 69%
    17:00 +10°C° 0.1 mm 1 mps 599 mmHg 75%
    18:00 +9°C° 0.1 mm 1 mps 598 mmHg 82%
    19:00 +7°C° 0.1 mm 1 mps 598 mmHg 88%
    20:00 +7°C° 0.1 mm 1 mps 598 mmHg 89%
    21:00 +7°C° 0.1 mm 1 mps 598 mmHg 91%
    22:00 +6°C° 0.1 mm 1 mps 598 mmHg 92%
    23:00 +6°C° 0.2 mm 1 mps 598 mmHg 93%
    Show more